Regional Weather Roundup
Issued by NWS

Home | Current Version | Previous Version | Text Only | Print | Product List | Glossary Off
Versions: 1 2 3 4 5 6 7 8 9 10 11 12 13 14 15 16 17 18 19 20 21 22 23 24 25 26 27 28 29 30 31 32 33 34 35 36 37 38 39 40 41 42 43 44 45 46 47 48 49 50

931
ASUS45 KTFX 240610
RWRMT
MONTANA REGIONAL WEATHER ROUNDUP
NATIONAL WEATHER SERVICE GREAT FALLS MT
1100 PM MST THU FEB 23 2017

NOTE: "FAIR" INDICATES FEW OR NO CLOUDS BELOW 12000 FEET WITH NO
SIGNIFICANT WEATHER AND/OR OBSTRUCTIONS TO VISIBILITY.

MTZ001>007-043-240700-
WEST OF THE DIVIDE

CITY           SKY/WX    TMP DP  RH WIND       PRES   REMARKS
KALISPELL      CLEAR     17  14  88 CALM      29.97R
MISSOULA       CLOUDY    30  22  72 NW9       29.97R WCI  22
BUTTE          LGT SNOW  20  16  84 W5        29.85S FOG
MULLAN PASS    CLOUDY    15  14  95 NW6       29.86S FOG     WCI   6
ANACONDA         N/A     21  14  73 N5        29.88S
DEER LODGE       N/A     23  16  74 NW8       29.92S WCI  14
EUREKA           N/A     18  12  79 CALM      30.00S
HAMILTON         N/A     28  23  80 N5        29.94R
LIBBY            N/A     19  18  93 S3        30.01R
PLAINS           N/A     20  12  71 CALM      30.02R
RONAN            N/A     24  19  81 CALM      30.00R
$$

MTZ008-052>055-240700-
SOUTHWEST MONTANA

CITY           SKY/WX    TMP DP  RH WIND       PRES   REMARKS
BOZEMAN        CLOUDY    26  13  57 NW5       29.89S
DILLON         CLOUDY    24  16  71 NE12      29.82S WCI  13
W YELLOWSTONE  LGT SNOW  18  14  86 N5        29.78S
ENNIS          CLOUDY    21  16  79 N10       29.87S HAZE    WCI  10
THREE FORKS      N/A     25 -12  19 CALM      29.90S
TWIN BRIDGES     N/A     24  14  65 N15       29.84S WCI  11
$$

MTZ009-010-012-014-046-048-049-054-240700-
EAST SLOPES AND CENTRAL MONTANA

CITY           SKY/WX    TMP DP  RH WIND       PRES   REMARKS
CUT BANK       CLOUDY    22  18  85 SE3       29.95R
GREAT FALLS    CLOUDY    24  22  91 N7        29.96S WCI  16
MALMSTROM AFB  CLOUDY    25  24  97 N5        29.97F
HELENA         CLOUDY    27  22  81 W8        29.93S WCI  19
AUGUSTA        FLURRIES  21  20  96 SW3       29.93S
BOWMANS CRNR   FLURRIES  20  20  98 E3        29.91F
CHOTEAU          N/A     19  18  93 CALM      29.97S
CONRAD           N/A     23  22  96 NE2       29.99S
POWER          FLURRIES  23  22  96 E3        29.95F
RAYNESFORD       N/A     22  19  87 S10       29.94F WCI  11
ULM            FLURRIES  25  23  93 MISG      29.96F
$$

MTZ011-013-016-021-045-047-050-051-240700-
NORTH CENTRAL MONTANA

CITY           SKY/WX    TMP DP  RH WIND       PRES   REMARKS
HAVRE          CLOUDY    26  23  88 E6        30.03S WCI  19
LEWISTOWN      CLOUDY    22  18  85 E9        29.95F WCI  12
N BAR RANCH    CLOUDY    21  19  93 SE9       29.98S WCI  11
CHINOOK          N/A     27  25  93 E8        30.05S WCI  18
DENTON         MOCLDY    22  19  86 S3        29.95F
FORT BENTON      N/A     27  23  86 MISG      30.01S
GEYSER         CLOUDY    24  19  81 E5        29.95S
GRASS RANGE    FLURRIES  23  22  98 E6        29.95F WCI  15
JUDITH GAP     FLURRIES  20  16  86 SW13      29.93F WCI   7
ROY            LGT SNOW  25  25  99 MISG      29.98F FOG
STANFORD       CLOUDY    23  17  80 S13       29.93F WCI  11
WINIFRED       MOCLDY    22  21  97 E8        29.97F WCI  12
$$

MTZ017>020-022>027-061-062-240700-
NORTHEAST MONTANA

CITY           SKY/WX    TMP DP  RH WIND       PRES   REMARKS
GLASGOW        CLOUDY    25  18  74 E10       30.10F WCI  15
JORDAN           N/A     26  22  84 E10       30.07S WCI  16
SIDNEY         CLOUDY    24  19  81 NE6       30.15S WCI  17
WOLF POINT     CLOUDY    26  18  71 E8        30.14S WCI  18
PLENTYWOOD       N/A     25  16  68 CALM      30.13S
POPLAR           N/A     23  18  80 E7        30.15S WCI  15
$$

MTZ028>42-056>058-240700-
SOUTHCENTRAL AND SOUTHEAST MONTANA

CITY           SKY/WX    TMP DP  RH WIND       PRES   REMARKS
BAKER          CLOUDY    23  21  92 E14       30.07R WCI  11
BILLINGS       LGT SNOW  26  24  92 NE8       29.97S FOG     WCI  18
LIVINGSTON     LGT SNOW  21  18  88 E15       29.90S FOG     WCI   8
MILES CITY     CLOUDY    28  23  81 NE12      30.06R WCI  18
BIG TIMBER     FOG       21  21 100 NE5       29.96S VSB 1
FORSYTH          N/A     27  27 100 NE7       30.04S WCI  19
HARLOWTON      FLURRIES  22  20  93 E6        29.95F WCI  14
LAUREL           N/A     25  17  71 N5        29.94F
ROUNDUP          N/A     26  21  81 NE5       29.91S
$$

REGIONAL REPORTS...DAKOTAS

CITY           SKY/WX    TMP DP  RH WIND       PRES   REMARKS
WILLISTON      CLEAR     11  10  96 CALM      30.16S
MINOT          PTCLDY    19  14  81 SW7       30.12F WCI  10
DICKINSON      CLEAR     13   8  81 N5        30.09R
BEACH            N/A    N/A N/A N/A MISG        N/A
CROSBY         CLOUDY    25  19  80 SW8       30.16R WCI  16
TIOGA          CLOUDY    14  14 100 W6        30.14S WCI   5
WATFORD CITY     N/A     10   9  92 CALM      30.16R
BISMARCK       CLOUDY    19  13  77 N7        30.15R WCI  10
GRAND FORKS    CLEAR     18  10  71 N5        30.15R
FARGO          CLOUDY    22  13  68 N17       30.11R WCI   8
BUFFALO SD       N/A     23  21  92 NE18      29.97S WCI   9
RAPID CITY     MIX PCPN  25  20  81 NE14      29.99R WCI  13
$$

REGIONAL REPORTS...WYOMING/IDAHO/WASHINGTON

CITY           SKY/WX    TMP DP  RH WIND       PRES   REMARKS
SHERIDAN       LGT SNOW  24  21  88 SE10      29.96S FOG     WCI  14
BUFFALO WY     LGT SNOW  21  17  84 CALM      29.92S FOG
CODY           FLURRIES  20  15  81 NW3       29.89F
YELLOWSTONE LA   N/A      8   6  92 CALM      29.74F
IDAHO FALLS    LGT SNOW  23  22  96 S20G28    29.81S FOG     WCI   8
SALMON         CLOUDY    28  19  69 CALM      29.85S
BOISE          CLOUDY    30  24  78 NW17G28   29.97S WCI  18
$$

REGIONAL REPORTS...ALBERTA

CITY           SKY/WX    TMP DP  RH WIND       PRES   REMARKS
EDMONTON       CLOUDY    21  18  86 N3        30.03R
CALGARY        MOCLDY    19  12  73 S2        29.95R
LETHBRIDGE     CLEAR     19  18  93 SW2       29.98R
MEDICINE HAT   CLOUDY    21  18  86 E5        30.05S
MILK RIVER       N/A     25  21  86 S8          N/A  WCI  16
$$

REGIONAL REPORTS...SASKATCHEWAN

CITY           SKY/WX    TMP DP  RH WIND       PRES   REMARKS
SWIFT CURRENT  CLOUDY    19  14  79 S6        30.06S WCI  11
REGINA         MOCLDY    25  19  80 CALM      30.12R
SASKATOON      CLOUDY    21  16  79 SE5       30.13S
CYPRESS HILLS    N/A     16  12  86 S8          N/A  WCI   5
VAL MARIE        N/A     25  19  80 SE9         N/A  WCI  15
$$




USA.gov is the U.S. government's official web portal to all federal, state and local government web resources and services.